MPEC 2014-W112: 2014 WW202
The following Minor Planet Electronic Circular may be linked-to from your own Web pages, but must not otherwise be redistributed electronically.A form allowing access to any MPEC is at the bottom of this page.


M.P.E.C. 2014-W112 Issued 2014 Nov. 26, 16:12 UT The Minor Planet Electronic Circulars contain information on unusual minor planets and routine data on comets. They are published on behalf of Commission 20 of the International Astronomical Union by the Minor Planet Center, Smithsonian Astrophysical Observatory, Cambridge, MA 02138, U.S.A. Prepared using the Tamkin Foundation Computer Network MPC@CFA.HARVARD.EDU URL https://www.minorplanetcenter.net/ ISSN 1523-6714 2014 WW202 Observations: K14WK2W* C2014 11 24.36641 03 33 57.065+05 44 04.57 21.7 wLEW112F51 K14WK2W C2014 11 24.38156 03 33 53.752+05 43 42.36 22.0 wLEW112F51 K14WK2W C2014 11 24.39685 03 33 50.424+05 43 20.13 22.0 wLEW112F51 K14WK2W _C2014 11 25.47006003 30 11.941+05 17 11.67 22.3 RtEW112568 K14WK2W _C2014 11 25.47131403 30 11.666+05 17 09.90 22.0 RtEW112568 K14WK2W _C2014 11 25.47256703 30 11.398+05 17 08.13 21.8 RtEW112568 K14WK2W KC2014 11 26.35704 03 27 12.07 +04 55 41.5 22.3 RoEW112291 K14WK2W KC2014 11 26.36212 03 27 10.93 +04 55 34.1 22.4 RoEW112291 K14WK2W KC2014 11 26.36721 03 27 09.84 +04 55 27.0 22.1 RoEW112291 Observer details: 291 LPL/Spacewatch II. Observer A. F. Tubbiolo. 1.8-m f/2.7 reflector + CCD. 568 Mauna Kea. Observers R. J. Wainscoat, D. Woodworth. Measurers M. Micheli, R. J. Wainscoat. 3.6-m Canada-France-Hawaii Telescope + CCD. F51 Pan-STARRS 1, Haleakala. Observers B. Gibson, T. Goggia, N. Primak, A. Schultz, M. Willman. Measurers B. Bolin, K. Chambers, S. Chastel, L. Denneau, H. Flewelling, M. Huber, E. Magnier, E. Schunova, R. Wainscoat, C. Waters. 1.8-m Ritchey-Chretien + CCD. Orbital elements: 2014 WW202 Earth MOID = 0.0514 AU Epoch 2014 Dec. 9.0 TT = JDT 2457000.5 MPC M 248.48673 (2000.0) P Q n 0.94435613 Peri. 10.41250 -0.91900063 +0.39407449 a 1.0289135 Node 192.81556 -0.36548984 -0.86293353 e 0.2226233 Incl. 3.09181 -0.14783442 -0.31630842 P 1.04 H 24.4 G 0.15 U 9 Residuals in seconds of arc 141124 F51 0.0 0.1- 141125 568 0.0 0.0 141126 291 0.4+ 0.1- 141124 F51 0.1- 0.1- 141125 568 0.1- 0.0 141126 291 0.2- 0.1- 141124 F51 0.1+ 0.1+ 141125 568 0.0 0.1+ 141126 291 0.1- 0.2+ Ephemeris: 2014 WW202 a,e,i = 1.03, 0.22, 3 q = 0.7999 Date TT R. A. (2000) Decl. Delta r Elong. Phase V 2014 10 27 04 40 16.3 +15 51 06 0.2947 1.2399 142.1 29.5 23.5 ... 2014 11 11 04 14 24.1 +11 07 58 0.2366 1.2171 161.7 14.8 22.5 ... 2014 11 19 03 51 33.1 +07 57 14 0.2167 1.2013 168.0 9.8 22.1 ... 2014 11 25 03 31 48.4 +05 28 48 0.2079 1.1878 163.2 13.9 22.2 2014 11 26 03 28 25.8 +05 04 36 0.2069 1.1854 161.8 15.0 22.2 2014 11 27 03 25 03.1 +04 40 43 0.2061 1.1830 160.4 16.3 22.2 ... 2014 12 03 03 05 12.1 +02 27 09 0.2040 1.1678 150.6 24.5 22.4 ... 2014 12 11 02 41 43.6 +00 06 23 0.2072 1.1455 137.2 35.7 22.7 ... 2014 12 26 02 12 41.5 -02 02 43 0.2236 1.0982 115.4 54.0 23.3 A. U. Tomatic (C) Copyright 2014 MPC M.P.E.C. 2014-W112


Enter an MPEC number in one of the following forms:
- 1997-B01 (the full form)
- J97B01 (the packed version of the full form)
- B01 (the abbreviated form)